KJ4RUS Largo FL US current weather conditions

sailwx.info

Wind from 055 at 6 knots gusting 10

Air temperature 18.9° C
Dewpoint 12.6° C

Last reported at 2019-Mar-19 01:02 UTC.
Time now 2019-Mar-19 01:44 UTC

Location: N 27°54' W 082°49'.
View on Google Maps.

See reports from other nearby stations

  
Tides and Currents Weather Stations Pressure Air Temp Water Temp Dewpoint Dewpoint Depression Visibility Wind Speed Wind Dir Waves Ship Positions
date/time (UTC)wind fromknots sea level pressurealtimeterstation pressurevisibilityair tempwater tempwave heightnotes
2019-Mar-19 01:02 055 6 gusting 10 18.9
2019-Mar-19 00:46 047 1 gusting 10 19.4
2019-Mar-19 00:31 060 4 gusting 9 19.4
2019-Mar-19 00:16 063 2 gusting 6 20.0
2019-Mar-19 00:01 005 0 gusting 4 20.0
2019-Mar-18 23:46 348 1 gusting 4 20.0
2019-Mar-18 23:31 014 0 gusting 5 20.0
2019-Mar-18 23:16 017 1 gusting 7 20.0
2019-Mar-18 23:01 029 2 gusting 9 20.0
2019-Mar-18 22:46 355 4 gusting 12 20.0
2019-Mar-18 22:31 017 5 gusting 13 20.0
2019-Mar-18 22:16 035 2 gusting 12 20.0
2019-Mar-18 22:00 009 5 gusting 12 19.4
2019-Mar-18 21:46 336 4 gusting 14 19.4
2019-Mar-18 21:31 319 4 gusting 12 20.0
2019-Mar-18 21:15 025 6 gusting 12 20.0
2019-Mar-18 21:01 336 3 gusting 12 20.0
2019-Mar-18 20:46 355 3 gusting 10 20.0
2019-Mar-18 20:30 328 2 gusting 12 20.6
2019-Mar-18 20:15 021 5 gusting 10 20.6
2019-Mar-18 20:00 346 4 gusting 9 20.6
2019-Mar-18 19:45 343 1 gusting 12 20.6
2019-Mar-18 19:30 295 2 gusting 11 20.6
2019-Mar-18 19:15 347 4 gusting 10 20.6
2019-Mar-18 19:00 009 4 gusting 12 21.1
2019-Mar-18 18:45 321 0 gusting 8 21.7
2019-Mar-18 18:30 024 1 gusting 6 21.7
2019-Mar-18 18:15 042 21.1
2019-Mar-18 18:00 040 1 gusting 6 21.1
2019-Mar-18 17:46 034 4 gusting 8 20.6
2019-Mar-18 17:30 044 3 gusting 8 20.0
2019-Mar-18 17:15 052 4 gusting 9 20.0
2019-Mar-18 17:00 026 3 gusting 6 20.0
2019-Mar-18 16:45 051 3 gusting 6 19.4
2019-Mar-18 16:30 344 3 gusting 7 18.9
2019-Mar-18 16:02 045 1 gusting 8 17.8
2019-Mar-18 15:47 061 3 gusting 7 17.2
2019-Mar-18 15:31 055 4 gusting 8 16.7
2019-Mar-18 15:16 038 4 gusting 10 16.7
2019-Mar-18 15:02 053 0 gusting 4 16.7
2019-Mar-18 14:46 027 16.7
2019-Mar-18 14:31 347 2 gusting 10 16.1
2019-Mar-18 14:17 019 3 gusting 8 15.6
2019-Mar-18 14:02 030 4 gusting 9 15.6
2019-Mar-18 13:46 036 1 gusting 7 15.0
2019-Mar-18 13:31 028 0 gusting 7 15.0
2019-Mar-18 13:16 034 2 gusting 9 15.0
2019-Mar-18 13:00 027 3 gusting 9 15.0
2019-Mar-18 12:45 005 2 gusting 7 14.4
2019-Mar-18 12:31 049 1 gusting 6 14.4
2019-Mar-18 12:15 029 0 gusting 4 13.9
2019-Mar-18 12:00 037 1 gusting 7 13.9
2019-Mar-18 11:46 078 13.9
2019-Mar-18 11:30 075 13.9
2019-Mar-18 11:15 038 1 gusting 5 13.9
2019-Mar-18 11:00 044 13.9
2019-Mar-18 10:45 062 0 gusting 6 13.9
2019-Mar-18 10:30 056 13.9
2019-Mar-18 10:15 074 13.9
2019-Mar-18 10:00 077 1 gusting 8 14.4
2019-Mar-18 09:45 360 0 gusting 5 13.9
2019-Mar-18 09:30 011 14.4
2019-Mar-18 09:15 033 0 gusting 8 14.4
2019-Mar-18 09:00 059 1 gusting 9 14.4
2019-Mar-18 08:45 069 1 gusting 5 14.4
2019-Mar-18 08:30 020 2 gusting 7 14.4
2019-Mar-18 08:15 066 3 gusting 9 14.4
2019-Mar-18 07:46 360 1 gusting 6 14.4
2019-Mar-18 07:32 046 0 gusting 7 14.4
2019-Mar-18 07:17 028 1 gusting 8 14.4
2019-Mar-18 07:01 062 2 gusting 8 14.4
2019-Mar-18 06:46 063 3 gusting 8 15.0
2019-Mar-18 06:31 039 4 gusting 9 15.0
2019-Mar-18 06:16 048 3 gusting 7 15.0
2019-Mar-18 06:01 036 0 gusting 6 15.0
2019-Mar-18 05:46 350 1 gusting 6 15.6
2019-Mar-18 05:31 021 0 gusting 5 15.6
2019-Mar-18 05:16 042 1 gusting 8 16.1
2019-Mar-18 05:01 014 3 gusting 7 16.1
2019-Mar-18 04:46 026 1 gusting 6 16.1
2019-Mar-18 04:31 027 3 gusting 6 16.1
2019-Mar-18 04:15 044 1 gusting 6 16.7
2019-Mar-18 04:00 049 2 gusting 6 16.7
2019-Mar-18 03:45 037 0 gusting 7 16.7
2019-Mar-18 03:30 036 1 gusting 7 16.7
2019-Mar-18 03:15 019 2 gusting 8 16.7
2019-Mar-18 03:00 042 2 gusting 6 16.7
2019-Mar-18 02:46 062 4 gusting 9 17.2
2019-Mar-18 02:30 054 3 gusting 8 17.2
2019-Mar-18 02:15 005 1 gusting 6 17.8
2019-Mar-18 02:00 035 3 gusting 9 17.8
2019-Mar-18 01:45 084 4 gusting 9 17.8
2019-Mar-18 01:30 360 2 gusting 8 17.8
2019-Mar-18 01:15 038 18.3
2019-Mar-18 01:00 046 2 gusting 8 18.3
2019-Mar-18 00:45 013 1 gusting 6 18.3
2019-Mar-18 00:30 048 1 gusting 7 18.9
2019-Mar-18 00:15 360 0 gusting 9 18.9
2019-Mar-18 00:00 045 0 gusting 3 19.4
2019-Mar-17 23:45 034 4 gusting 9 20.0
2019-Mar-17 23:30 025 0 gusting 5 20.6
2019-Mar-17 23:15 355 1 gusting 6 20.6
2019-Mar-17 23:00 010 0 gusting 6 20.6
2019-Mar-17 22:45 360 0 gusting 4 21.1
2019-Mar-17 22:30 355 21.1
2019-Mar-17 22:15 035 21.1
2019-Mar-17 22:00 044 21.1
2019-Mar-17 21:45 059 0 gusting 4 21.1
2019-Mar-17 21:30 346 21.1
2019-Mar-17 21:15 313 21.1
2019-Mar-17 21:00 005 21.1
2019-Mar-17 20:45 355 21.1
2019-Mar-17 20:30 323 0 gusting 8 21.1
2019-Mar-17 20:17 336 21.1
2019-Mar-17 20:01 360 1 gusting 7 21.1
2019-Mar-17 19:47 336 3 gusting 8 21.1
2019-Mar-17 19:31 348 1 gusting 6 20.6
2019-Mar-17 19:16 017 0 gusting 4 20.6
2019-Mar-17 19:01 005 0 gusting 4 21.1
2019-Mar-17 18:47 045 20.6
2019-Mar-17 18:32 061 0 gusting 7 20.6
2019-Mar-17 18:17 041 21.1
2019-Mar-17 18:01 061 1 gusting 7 21.7
2019-Mar-17 17:46 072 2 gusting 8 21.7
2019-Mar-17 17:32 153 2 gusting 7 22.2
2019-Mar-17 17:17 143 2 gusting 6 22.2
2019-Mar-17 17:01 059 21.7
2019-Mar-17 16:46 028 1 gusting 6 21.7
2019-Mar-17 16:31 030 20.6
2019-Mar-17 16:16 300 1 gusting 8 20.0
2019-Mar-17 16:01 005 1 gusting 8 19.4
2019-Mar-17 15:46 015 2 gusting 9 19.4
2019-Mar-17 15:31 360 0 gusting 8 19.4
2019-Mar-17 15:15 343 1 gusting 7 19.4
2019-Mar-17 15:01 337 20.0
2019-Mar-17 14:46 327 0 gusting 6 19.4
2019-Mar-17 14:30 336 0 gusting 3 19.4
2019-Mar-17 14:15 046 0 gusting 5 18.9
2019-Mar-17 14:00 033 0 gusting 5 18.3
2019-Mar-17 13:46 059 18.3
2019-Mar-17 13:30 021 2 gusting 7 17.8
2019-Mar-17 13:15 057 2 gusting 8 17.8
2019-Mar-17 13:00 082 0 gusting 5 17.8
2019-Mar-17 12:45 053 0 gusting 6 17.8
2019-Mar-17 12:30 060 17.2
2019-Mar-17 12:15 050 17.2
2019-Mar-17 12:02 085 17.2
2019-Mar-17 11:47 057 17.2
2019-Mar-17 11:31 052 0 gusting 5 17.2
2019-Mar-17 11:17 083 0 gusting 6 17.2
2019-Mar-17 11:02 095 1 gusting 7 17.2
2019-Mar-17 10:47 079 0 gusting 3 17.2
2019-Mar-17 10:32 033 17.2
2019-Mar-17 10:16 039 17.8
2019-Mar-17 10:01 023 17.8
2019-Mar-17 09:46 044 0 gusting 4 17.8
2019-Mar-17 09:31 013 0 gusting 4 17.8
2019-Mar-17 09:16 355 2 gusting 5 18.3
2019-Mar-17 09:03 046 1 gusting 8 18.3
2019-Mar-17 08:46 057 1 gusting 6 18.3
2019-Mar-17 08:31 053 18.3
2019-Mar-17 08:16 036 0 gusting 5 18.3
2019-Mar-17 08:01 098 0 gusting 4 18.9
2019-Mar-17 07:46 053 1 gusting 5 18.9
2019-Mar-17 07:30 054 0 gusting 6 18.9
2019-Mar-17 07:16 054 1 gusting 4 18.9
2019-Mar-17 07:01 092 1 gusting 6 18.9
2019-Mar-17 06:46 065 1 gusting 4 18.9
2019-Mar-17 06:30 040 0 gusting 5 18.9
2019-Mar-17 06:16 037 18.9
2019-Mar-17 06:00 064 0 gusting 4 18.9
2019-Mar-17 05:45 092 1 gusting 7 19.4
2019-Mar-17 05:30 073 3 gusting 7 19.4
2019-Mar-17 05:15 107 2 gusting 8 19.4
2019-Mar-17 05:00 084 0 gusting 4 19.4
2019-Mar-17 04:45 111 0 gusting 6 20.0
2019-Mar-17 04:30 060 0 gusting 5 20.0
2019-Mar-17 04:15 073 1 gusting 9 20.0
2019-Mar-17 04:00 065 1 gusting 10 20.6
2019-Mar-17 03:45 094 3 gusting 8 20.6
2019-Mar-17 03:30 068 2 gusting 6 20.6
2019-Mar-17 03:15 030 2 gusting 7 21.1
2019-Mar-17 03:00 071 2 gusting 8 21.1
2019-Mar-17 02:45 005 2 gusting 7 21.1
2019-Mar-17 02:30 360 20.6
2019-Mar-17 02:15 355 20.6
2019-Mar-17 02:00 355 20.6
2019-Mar-17 01:45 360 20.6
2019-Mar-17 01:30 360 21.1
2019-Mar-17 01:15 014 21.1
2019-Mar-17 01:00 011 21.1